Regional Weather Roundup
Issued by NWS

Home | Current Version | Previous Version | Graphics & Text | Print | Product List | Glossary On
Versions: 1 2 3 4 5 6 7 8 9 10 11 12 13 14 15 16 17 18 19 20 21 22 23 24 25 26 27 28 29 30 31 32 33 34 35 36 37 38 39 40 41 42 43 44 45 46 47 48 49 50
000
ASUS43 KOAX 262310
RWRNE

WEATHER ROUNDUP FOR NEBRASKA
NATIONAL WEATHER SERVICE OMAHA NE
500 PM CST THU FEB 26 2015

NOTES: SATELLITE DATA IS BEING USED TO AUGMENT CLOUD COVER ABOVE
       12000 FEET.
       "FAIR" INDICATES FEW OR NO CLOUDS BELOW 12,000 FEET WITH NO
       SIGNIFICANT WEATHER AND/OR OBSTRUCTIONS TO VISIBILITY.

  * THESE STATIONS DO NOT REPORT WEATHER SUCH AS RAIN...SNOW OR FOG.

NEZ001>004-019>022-054>056-270000-
NEBRASKA PANHANDLE

CITY           SKY/WX    TMP DP  RH WIND       PRES   REMARKS
SCOTTSBLUFF    LGT SNOW  16   7  67 E9        30.27S WCI   4
ALLIANCE       PTSUNNY   11   0  61 NE10      30.29S WCI  -3
CHADRON        MOSUNNY   15   1  53 NE8       30.36F WCI   4
KIMBALL        LGT SNOW  14   8  76 E7        30.17S WCI   4
SIDNEY         CLOUDY    15   5  64 E5        30.25S WCI   8
$$

NEZ057>060-069>072-079>082-270000-
SOUTHWEST NEBRASKA

CITY           SKY/WX    TMP DP  RH WIND       PRES   REMARKS
NORTH PLATTE   SUNNY     19  -6  33 N13G23    30.36R WCI   6
IMPERIAL         N/A     20   0  41 N9        30.32R WCI   9
LEXINGTON      SUNNY     19  -8  30 N12       30.39S WCI   7
MCCOOK         SUNNY     24  -3  30 N9        30.37R WCI  14
OGALLALA       CLOUDY    19   0  44 N8        30.34R WCI   8
$$

NEZ005>010-023>029-035>040-094-270000-
NORTH CENTRAL NEBRASKA

CITY           SKY/WX    TMP DP  RH WIND       PRES   REMARKS
VALENTINE      PTSUNNY   12  -3  51 N14       30.43S WCI  -3
AINSWORTH      MOSUNNY   11  -3  53 N15G21    30.42F WCI  -5
BROKEN BOW     SUNNY     17  -5  37 N15       30.39S WCI   2
O`NEILL        CLOUDY    12  -1  57 N15       30.47S WCI  -4
ORD            SUNNY     16  -7  35 N10       30.43S WCI   4
THEDFORD       SUNNY     15  -4  42 N13G20    30.38R WCI   1
$$

NEZ041-046>049-061>064-073>077-083>087-270000-
SOUTH CENTRAL NEBRASKA

CITY           SKY/WX    TMP DP  RH WIND       PRES   REMARKS
GRAND ISLAND   SUNNY     16  -4  41 N14       30.46S WCI   2
AURORA         MOSUNNY   15  -3  43 N16       30.46S WCI  -1
HASTINGS       SUNNY     17  -7  34 N13       30.43S WCI   4
HEBRON         SUNNY     17  -5  36 N14       30.47S WCI   3
HOLDREGE       SUNNY     19 -10  27 N12       30.40R WCI   6
KEARNEY *      MOSUNNY   18  -6  35 NE17      30.42S WCI   2
YORK           MOSUNNY   14   0  52 N12G20    30.47S WCI   0
$$

NEZ011>018-030>034-042>045-270000-
NORTHEAST NEBRASKA

CITY           SKY/WX    TMP DP  RH WIND       PRES   REMARKS
NORFOLK        PTSUNNY   12   0  58 N14       30.48S WCI  -3
ALBION         MOSUNNY   13  -2  51 N13       30.47R WCI  -2
BLAIR          PTSUNNY   10   0  62 NW12G17   30.48F WCI  -4
COLUMBUS *     PTSUNNY   10  -6  48 N12       30.51R WCI  -4
FREMONT        PTSUNNY   12   1  60 N10G20    30.51S WCI  -1
TEKAMAH        CLOUDY    12  -1  56 NW16      30.53R WCI  -5
WAYNE          CLOUDY     9   1  70 N10       30.51R WCI  -5
$$

NEZ050>053-065>068-078-088>093-270000-
SOUTHEAST NEBRASKA

CITY           SKY/WX    TMP DP  RH WIND       PRES   REMARKS
LINCOLN        PTSUNNY   14  -1  51 N15       30.52S WCI  -1
OMAHA EPPLEY   FLURRIES  10   1  67 N13       30.53S WCI  -5
BEATRICE       MOSUNNY   15   0  52 N13       30.49R WCI   1
FALLS CITY     MOSUNNY   15  -2  46 N13       30.50R WCI   1
NEBRASKA CITY  CLOUDY    12  -3  51 N17       30.50R WCI  -5
PLATTSMOUTH    PTSUNNY   10  -2  57 N10G16    30.50S WCI  -3
$$

NEZ044-045-051>053-067-270000-
OMAHA AREA

CITY           SKY/WX    TMP DP  RH WIND       PRES   REMARKS
OMAHA EPPLEY   FLURRIES  10   1  67 N13       30.53S WCI  -5
BLAIR          PTSUNNY   10   0  62 NW12G17   30.48F WCI  -4
FREMONT        PTSUNNY   12   1  60 N10G20    30.51S WCI  -1
MILLARD        PTSUNNY   12   0  57 NW9G17    30.53S WCI   0
OFFUTT AFB     MOSUNNY   12  -1  56 NW13G21   30.52R WCI  -3
PLATTSMOUTH    PTSUNNY   10  -2  57 N10G16    30.50S WCI  -3
WAHOO          CLOUDY    12   2  64 N16       30.51S WCI  -5
$$


USA.gov is the U.S. government's official web portal to all federal, state and local government web resources and services.